Voltar ao catálogo

COSMOS 970 DEB

AtivoLEO
NORAD 12870·DEBRIS·🇷🇺 Russia

Lançado Dec 21, 1977 de Baikonur Cosmodrome

Loading…

Próximas Passagens (próximas 24 horas)

TLE

AtualizadoSource: Space-Track

Época: Sep 14, 2026, 00:47 UTC

1 12870U 77121AY  26257.03279410  .00000519  00000-0  46816-3 0  9997
2 12870  65.7223 277.6766 0115118 343.4997  36.4513 13.89421960441792

Acompanhe COSMOS 970 DEB em tempo real com AllMySat

Download on the App Store